This is the latest recevied weather packets stored in our database for station/object N1ORT. If no packets are shown the sender has not sent any weather packets the latest 10 day(s).
| Time | Temp. | Humidity | Pressure | Rain* | Wind** | Luminosity | Snow |
|---|---|---|---|---|---|---|---|
| 1788564097 | 22.22° C | 78% | 1007.6 hPa | 0 mm | - | 1 W/m² | - |
| 1788563792 | 22.22° C | 77% | 1007.4 hPa | 0 mm | - | 2 W/m² | - |
| 1788563487 | 22.22° C | 74% | 1007.4 hPa | 0 mm | - | 2 W/m² | - |
| 1788563187 | 22.78° C | 76% | 1007.4 hPa | 0 mm | - | 4 W/m² | - |
| 1788562883 | 22.78° C | 73% | 1007.7 hPa | 0 mm | - | 6 W/m² | - |
| 1788562580 | 22.78° C | 75% | 1007.8 hPa | 0 mm | - | 8 W/m² | - |
| 1788562275 | 22.78° C | 75% | 1007.4 hPa | 0 mm | - | 13 W/m² | - |
| 1788561969 | 23.33° C | 73% | 1007.5 hPa | 0 mm | - | 16 W/m² | - |
| 1788561664 | 23.33° C | 71% | 1007.5 hPa | 0 mm | - | 19 W/m² | - |
| 1788561363 | 23.33° C | 72% | 1007.3 hPa | 0 mm | - | 13 W/m² | - |
| 1788561059 | 23.33° C | 71% | 1007.5 hPa | 0 mm | - | 14 W/m² | - |
| 1788560755 | 23.89° C | 72% | 1007.4 hPa | 0 mm | - | 16 W/m² | - |
| 1788560449 | 24.44° C | 68% | 1007.4 hPa | 0 mm | - | 19 W/m² | - |
| 1788560144 | 24.44° C | 67% | 1007.2 hPa | 0 mm | - | 30 W/m² | - |
| 1788559839 | 25° C | 66% | 1007.3 hPa | 0 mm | - | 43 W/m² | - |
| 1788559538 | 25° C | 68% | 1007.4 hPa | 0 mm | - | 50 W/m² | - |
| 1788559234 | 25° C | 60% | 1007.1 hPa | 0 mm | - | 53 W/m² | - |
| 1788558928 | 25.56° C | 66% | 1006.9 hPa | 0 mm | - | 59 W/m² | - |
| 1788558624 | 25.56° C | 60% | 1006.9 hPa | 0 mm | - | 74 W/m² | - |
| 1788558320 | 25.56° C | 62% | 1007 hPa | 0 mm | - | 64 W/m² | - |
| 1788558015 | 25.56° C | 59% | 1007 hPa | 0 mm | - | 69 W/m² | - |
| 1788557713 | 25.56° C | 59% | 1007.1 hPa | 0 mm | - | 79 W/m² | - |
| 1788557410 | 25.56° C | 60% | 1007.2 hPa | 0 mm | - | 80 W/m² | - |
| 1788557109 | 25.56° C | 57% | 1007.2 hPa | 0 mm | - | 72 W/m² | - |
| 1788556804 | 25.56° C | 60% | 1007.3 hPa | 0 mm | - | 69 W/m² | - |
* Rain latest hour (hover to see other rain measurements)
** Current wind speed in m/s (hover to see current wind gust speed)